Regional Weather Roundup
Issued by NWS

Home | Current Version | Previous Version | Graphics & Text | Print | Product List | Glossary On
Versions: 1 2 3 4 5 6 7 8 9 10 11 12 13 14 15 16 17 18 19 20 21 22 23 24 25 26 27 28 29 30 31 32 33 34 35 36 37 38 39 40 41 42 43 44 45 46 47 48 49 50
058
ASUS44 KJAN 250403
RWRMS

MISSISSIPPI HOURLY WEATHER ROUNDUP
NATIONAL WEATHER SERVICE JACKSON MS
1100 PM CDT FRI OCT 24 2014

NOTE: "FAIR: INDICATES FEW OR NO CLOUDS BELOW 12,000 FEET WITH NO
SIGNIFICANT WEATHER AND/OR OBSTRUCTIONS TO VISIBILITY.

MSZ001>002-007>008-010>013-018>021-025>028-034>036-250500-
NORTHWEST MISSISSIPPI

CITY           SKY/WX    TMP DP  RH WIND       PRES   REMARKS
CLARKSDALE     FAIR      57  55  94 S6        30.11F
CLEVELAND      FAIR      56  54  91 CALM      30.11S
GREENWOOD      CLEAR     51  50  96 CALM      30.12S
GREENVILLE     CLEAR     54  50  86 CALM      30.11S
GRENADA          N/A    N/A N/A N/A MISG        N/A
OLIVE BRANCH   CLEAR     55  55 100 CALM      30.10S
OXFORD         FAIR      50  50 100 CALM      30.12S FOG
TUNICA         CLEAR     57  54  88 CALM      30.10F
$$

MSZ003>006-009-014>017-022>024-029>033-037>039-250500-
NORTHEAST MISSISSIPPI

CITY           SKY/WX    TMP DP  RH WIND       PRES   REMARKS
COLUMBUS AFB   CLEAR     47  45  94 CALM      30.11R
CORINTH        FAIR      52  50  93 CALM      30.09F FOG
GOLDN TRIANGLE CLEAR     52  45  76 CALM      30.10S
STARKVILLE     FAIR      46  46 100 CALM      30.11S
TUPELO         CLEAR     54  51  90 CALM      30.10S
$$

MSZ040-058-250500-
CENTRAL MISSISSIPPI

CITY           SKY/WX    TMP DP  RH WIND       PRES   REMARKS
JACKSON INTL   CLEAR     51  47  86 CALM      30.13R
JACKSON HAWKNS CLEAR     52  47  83 CALM      30.13R
MERIDIAN KEY   CLEAR     48  46  93 CALM      30.11S
MERIDIAN NAS   CLEAR     51  47  86 N3        30.11R
RAYMOND        FAIR      48  45  87 MISG      30.13R
VICKSBURG      CLEAR     47  45  93 CALM      30.14R
$$

MSZ059>079-250500-
SOUTH MISSISSIPPI

CITY           SKY/WX    TMP DP  RH WIND       PRES   REMARKS
BROOKHAVEN     FAIR      52  46  82 CALM      30.14S
COLUMBIA         N/A    N/A N/A N/A MISG        N/A
HATTIESBURG    CLEAR     51  49  92 CALM      30.11S
MCCOMB         CLEAR     59  47  64 N8        30.12S
NATCHEZ        CLEAR     50  46  87 SE3       30.14S
PINE BELT      CLEAR     55  45  67 NW5       30.11S
$$

MSZ080>082-250500-
COASTAL MISSISSIPPI

CITY           SKY/WX    TMP DP  RH WIND       PRES   REMARKS
BILOXI         CLEAR     62  49  62 N6        30.08S
PASCAGOULA     CLEAR     49  47  93 CALM      30.08S
GULFPORT       CLEAR     55  50  83 N3        30.08S
$$



USA.gov is the U.S. government's official web portal to all federal, state and local government web resources and services.